Location: Newark
(41.8083°N, 72.2500°W)
Time: 19:07:22
(UTC+00:00)

Courier 1B - Pass Details

Date: 01 December 2021
Orbit: 962 x 1209 km, 28.3° (Epoch: 19 January)

Event Time Altitude Azimuth Distance (km) Brightness Sun altitude
Rises 21:36:22 0° 219° (SW) 4,000 12.1 -3.7°
Reaches altitude 10° 21:40:15 10° 201° (SSW) 2,995 10.8 -4.4°
Maximum altitude 21:44:52 18° 162° (SSE) 2,408 9.7 -5.1°
Drops below altitude 10° 21:49:19 10° 123° (ESE) 2,881 9.7 -5.9°
Sets 21:52:56 0° 105° (ESE) 3,788 10.1 -6.5°
